This demonstration page uses our WeatherBlox Daily Observations layout. Learn more.

Left ArrowRight Arrow

Hourly Observations for December 5, 2015

Temp ( °F °C ) Dew Point ( °F °C ) Humidity (%) Winds ( mph kmh ) Pressure ( in mb ) Visibility ( mi km ) Precip ( " mm )
12:53 am 00:53 Clear 31 -0.6 27 -2.8 85 85 Calm 30.53 1034 10 16 0.00 0.00
1:53 am 01:53 Clear 31 -0.6 28 -2.2 89 89 NE 3 6 30.54 1034 8 13 0.00 0.00
2:53 am 02:53 Clear 30 -1.1 27 -2.8 88 88 ENE 3 6 30.55 1034 10 16 0.00 0.00
3:53 am 03:53 Clear 30 -1.1 27 -2.8 88 88 Calm 30.54 1034 10 16 0.00 0.00
4:53 am 04:53 Clear 31 -0.6 28 -2.2 89 89 NE 3 6 30.55 1035 10 16 0.00 0.00
5:53 am 05:53 Clear 31 -0.6 28 -2.2 89 89 Calm 30.57 1035 10 16 0.00 0.00
6:53 am 06:53 Clear 29 -1.7 25 -3.9 85 85 E 3 6 30.60 1036 10 16 0.00 0.00
7:53 am 07:53 Sunny 29 -1.7 27 -2.8 92 92 Calm 30.62 1037 8 13 0.00 0.00
8:53 am 08:53 Sunny 37 2.8 31 -0.6 79 79 NNE 3 6 30.62 1037 10 16 0.00 0.00
9:53 am 09:53 Sunny 47 8.3 32 0 56 56 ENE 8 13 30.62 1037 10 16 0.00 0.00
10:53 am 10:53 Sunny 51 10.6 27 -2.8 39 39 ENE 16 26 30.62 1037 10 16 0.00 0.00
11:53 am 11:53 Sunny 54 12.2 28 -2.2 37 37 NE 13 20 30.59 1036 10 16 0.00 0.00
12:53 pm 12:53 Sunny 57 13.9 25 -3.9 29 29 E 8 13 30.56 1035 10 16 0.00 0.00
1:53 pm 13:53 Sunny 58 14.4 26 -3.3 29 29 NE 12 19 30.53 1034 10 16 0.00 0.00
2:53 pm 14:53 Sunny 59 15 26 -3.3 28 28 NE 10 17 30.52 1034 10 16 0.00 0.00
3:53 pm 15:53 Sunny 59 15 26 -3.3 28 28 ENE 8 13 30.52 1033 10 16 0.00 0.00
4:53 pm 16:53 Sunny 58 14.4 26 -3.3 29 29 ENE 8 13 30.52 1034 10 16 0.00 0.00
5:53 pm 17:53 Clear 54 12.2 27 -2.8 35 35 Calm 30.53 1034 10 16 0.00 0.00
6:53 pm 18:53 Clear 45 7.2 31 -0.6 58 58 NE 5 7 30.55 1035 10 16 0.00 0.00
7:53 pm 19:53 Clear 42 5.6 32 0 68 68 Calm 30.56 1035 10 16 0.00 0.00
8:53 pm 20:53 Clear 40 4.4 32 0 73 73 Calm 30.56 1035 10 16 0.00 0.00
9:53 pm 21:53 Clear 38 3.3 32 0 79 79 Calm 30.57 1035 10 16 0.00 0.00
10:53 pm 22:53 Clear 39 3.9 32 0 76 76 Calm 30.57 1035 10 16 0.00 0.00
11:53 pm 23:53 Clear 39 3.9 32 0 76 76 NNE 3 6 30.55 1035 10 16 0.00 0.00

Powered by AerisWeather